#timestamp,LO_Frequency,Hit,StdDev 
1511420415.1,286047003.2,N
1511420416.0,286047003.2,N
1511420435.8,286047003.2,N
1511420455.7,286047007.3,Y
1511420475.5,286047004.2,P
1511420495.3,286047002.0,P
1511420515.1,286047003.6,P
1511420535.9,286047001.4,N
1511420555.7,286047001.3,N
1511420575.5,286047004.1,Y
1511420595.4,286047004.1,P
1511420615.2,286047004.3,P
1511420635.0,286047005.1,P
1511420636.0,286047005.1,Y
1511420655.8,286047000.8,P
1511420675.6,286046997.5,N
1511420695.4,286046994.9,N
1511420715.3,286046995.5,N
1511420735.1,286046997.1,N
1511420755.8,286046994.9,N
1511420775.7,286046997.1,N
1511420795.5,286046997.3,N
1511420815.3,286046995.2,N
1511420835.2,286046995.1,N
1511420855.9,286046997.9,N
1511420875.7,286047001.0,N
1511420895.6,286046999.4,N
1511420915.4,286046997.8,N
1511420935.2,286046995.2,N
1511420955.0,286046996.0,N
1511420955.9,286046996.0,N
1511420975.8,286046995.4,N
1511420995.6,286046997.1,N
1511421015.4,286047000.6,N
1511421035.3,286046998.7,N
1511421055.1,286046998.5,N
1511421075.8,286046996.8,N
1511421095.7,286047001.6,N
1511421115.5,286047003.6,N
1511421135.3,286047004.7,N
1511421155.2,286047002.9,N
1511421175.9,286047002.3,N
1511421195.7,286046998.1,N
1511421215.5,286046997.5,N
1511421235.4,286046993.6,N
1511421255.2,286046992.7,N
1511421275.0,286046987.7,Y
1511421276.0,286046987.7,P
1511421295.8,286046987.5,N
1511421315.6,286046989.5,N
1511421335.4,286046989.7,N
1511421355.3,286046986.1,Y
1511421375.1,286046992.4,P
1511421395.8,286046992.7,P
1511421415.7,286046991.2,P
1511421435.5,286046989.1,Y
1511421455.4,286046994.9,P
1511421475.2,286046995.9,N
1511421495.0,286046993.5,P
1511421495.9,286046993.5,Y
1511421515.8,286047000.6,P
1511421535.6,286046993.3,N
1511421555.4,286046993.7,N
1511421575.3,286046996.8,N
1511421595.1,286047002.0,N
1511421596.0,286047002.0,N
1511421615.8,286047004.4,N
1511421635.6,286047001.7,N
1511421655.5,286047002.0,N
1511421675.3,286046999.8,N
1511421695.1,286047000.2,N
1511421715.9,286047000.7,N
1511421735.7,286046998.4,N
1511421755.5,286047001.2,N
1511421775.4,286046998.6,N
1511421795.2,286047002.7,N
1511421815.0,286047001.4,N
1511421815.9,286047001.4,N
1511421835.8,286047003.7,N
1511421855.6,286047003.5,N
1511421875.4,286047000.7,N
1511421895.2,286047004.0,N
1511421915.1,286047012.0,Y
1511421916.0,286047012.0,P
1511421935.8,286047011.7,N
1511421955.7,286047008.2,N
1511421975.5,286047008.5,N
1511421995.3,286047007.2,N
1511422015.1,286047005.3,N
1511422035.9,286047001.6,N
1511422055.7,286047003.9,N
1511422075.5,286047001.0,N
1511422095.4,286046995.8,N
1511422115.2,286046994.7,N
1511422135.0,286046993.7,N
1511422135.9,286046993.7,N
1511422155.8,286046993.6,N
1511422175.6,286046990.6,N
1511422195.4,286046996.4,N
1511422215.3,286046995.9,N
1511422235.1,286046996.2,N
1511422236.0,286046996.2,N
1511422255.8,286046992.7,N
1511422275.7,286046996.3,N
1511422295.5,286046996.2,N
1511422315.3,286046994.3,N
1511422335.1,286046992.3,N
1511422355.9,286046991.3,N
1511422375.7,286046991.4,N
1511422395.5,286046987.9,N
1511422415.4,286046986.6,N
1511422435.2,286046986.0,N
1511422455.0,286046985.1,N
1511422455.9,286046985.1,N
1511422475.8,286046984.3,N
1511422495.6,286046985.9,N
1511422515.4,286046985.4,N
1511422535.3,286046985.8,N
1511422555.1,286046987.8,N
1511422556.0,286046987.8,N
1511422575.8,286046985.4,N
1511422595.7,286046989.9,N
1511422615.5,286046988.8,N
1511422635.3,286046989.1,N
1511422655.2,286046989.5,N
1511422675.9,286046988.3,N
1511422695.7,286046985.7,Y
1511422715.6,286046997.8,P
1511422735.4,286046998.0,N
1511422755.2,286046996.2,N
1511422775.0,286046993.9,N
1511422776.0,286046993.9,N
1511422795.8,286046995.6,N
1511422815.6,286046996.6,N
1511422835.4,286046994.9,N
1511422855.3,286046999.4,N
1511422875.1,286047002.1,N
1511422895.8,286047002.2,N
1511422915.7,286047002.1,N
1511422935.5,286047000.4,N
1511422955.3,286046998.1,N
1511422975.2,286046998.7,N
1511422995.9,286047000.8,N
1511423015.7,286046999.4,N
1511423035.6,286046999.0,N
1511423055.4,286046997.9,N
1511423075.2,286046995.2,N
1511423095.0,286046997.5,N
1511423095.9,286046997.5,N
1511423115.8,286046995.2,N
1511423135.6,286046997.7,N
1511423155.4,286046999.0,N
1511423175.3,286046999.9,N
1511423195.1,286047002.3,N
1511423215.8,286047000.4,N
1511423235.7,286047000.4,N
1511423255.5,286047000.0,N
1511423275.3,286047005.9,N
1511423295.2,286047003.0,N
1511423315.9,286047005.3,N
1511423335.7,286047006.8,N
1511423355.5,286047003.8,N
1511423375.4,286047002.1,N
1511423395.2,286047000.0,N
1511423415.0,286047001.9,N
1511423415.9,286047001.9,N
1511423435.8,286047001.4,N
1511423455.6,286047002.7,N
1511423475.4,286047001.5,N
1511423495.3,286047002.0,N
1511423515.1,286047006.6,N
1511423535.8,286047010.5,Y
1511423555.7,286047010.7,P
1511423575.5,286047012.9,N
1511423595.3,286047011.6,N
1511423615.2,286047010.0,N
1511423635.9,286047011.8,N
1511423655.7,286047011.2,N
1511423675.6,286047010.5,N
1511423695.4,286047006.6,N
1511423715.2,286047005.4,N
1511423735.0,286047006.9,N
1511423736.0,286047006.9,N
1511423755.8,286047007.3,N
1511423775.6,286047007.9,N
1511423795.4,286047006.1,N
1511423815.3,286047006.4,N
1511423835.1,286047007.1,N
1511423855.8,286047009.0,Y
1511423875.7,286046996.8,P
1511423895.5,286046999.3,N
1511423915.3,286046997.4,N
1511423935.2,286046996.5,N
1511423955.9,286046996.5,N
1511423975.7,286047000.2,N
1511423995.6,286047002.6,N
